ACA422 CYYZ-CYUL

Flight info

Callsign ACA422
Flight time 0h 53m
Altitude 35000
Route DEDKI5 MIGLO HABBS7
Aircraft A321/M-SDE3FGHIRWY/LB1

Departure

Time 2026-05-04 22:00
Airport Toronto Pearson International Airport (CYYZ)

Arrival

Time 2026-05-04 22:53
Airport Montreal / Pierre Elliott Trudeau International Airport (CYUL)
Time Latitude Longitude Altitude Speed Heading
2026-05-04 21:11 43.68029 -79.61422 562 ft 0 kts 347°
2026-05-04 21:47 43.68028 -79.61422 562 ft 0 kts 347°
2026-05-04 21:47 43.68007 -79.61415 568 ft 4 kts 347°
2026-05-04 21:48 43.67986 -79.61408 567 ft 4 kts 336°
2026-05-04 21:48 43.67965 -79.61387 566 ft 4 kts 305°
2026-05-04 21:48 43.67951 -79.61356 569 ft 4 kts 311°
2026-05-04 21:48 43.67946 -79.61348 571 ft 0 kts 317°
2026-05-04 21:52 43.67946 -79.61349 571 ft 0 kts 317°
2026-05-04 21:52 43.67954 -79.61360 569 ft 3 kts 309°
2026-05-04 21:52 43.67950 -79.61396 562 ft 10 kts 237°
2026-05-04 21:52 43.67879 -79.61453 565 ft 12 kts 220°
2026-05-04 21:53 43.67842 -79.61510 567 ft 4 kts 227°
2026-05-04 21:53 43.67830 -79.61528 569 ft 0 kts 227°
2026-05-04 21:53 43.67829 -79.61530 569 ft 2 kts 227°
2026-05-04 21:54 43.67780 -79.61603 565 ft 17 kts 226°
2026-05-04 21:54 43.67687 -79.61644 566 ft 14 kts 176°
2026-05-04 21:54 43.67609 -79.61698 570 ft 12 kts 224°
2026-05-04 21:54 43.67536 -79.61731 571 ft 16 kts 155°
2026-05-04 21:55 43.67434 -79.61603 570 ft 21 kts 137°
2026-05-04 21:55 43.67329 -79.61466 567 ft 21 kts 136°
2026-05-04 21:55 43.67241 -79.61349 568 ft 16 kts 127°
2026-05-04 21:55 43.67264 -79.61207 562 ft 19 kts 53°
2026-05-04 21:56 43.67342 -79.61062 567 ft 18 kts 53°
2026-05-04 21:56 43.67415 -79.60925 566 ft 17 kts 52°
2026-05-04 21:56 43.67493 -79.60799 566 ft 17 kts 48°
2026-05-04 21:56 43.67575 -79.60679 566 ft 19 kts 46°
2026-05-04 21:57 43.67662 -79.60553 568 ft 18 kts 47°
2026-05-04 21:57 43.67744 -79.60433 566 ft 17 kts 47°
2026-05-04 21:57 43.67823 -79.60317 567 ft 16 kts 46°
2026-05-04 21:57 43.67899 -79.60207 563 ft 16 kts 46°
2026-05-04 21:58 43.67973 -79.60100 565 ft 15 kts 46°
2026-05-04 21:58 43.68026 -79.59986 565 ft 14 kts 91°
2026-05-04 21:58 43.67970 -79.59881 561 ft 14 kts 137°
2026-05-04 21:58 43.67899 -79.59797 567 ft 13 kts 156°
2026-05-04 21:59 43.67799 -79.59880 564 ft 25 kts 226°
2026-05-04 21:59 43.67554 -79.60236 570 ft 83 kts 226°
2026-05-04 21:59 43.67031 -79.61004 576 ft 133 kts 228°
2026-05-04 21:59 43.66388 -79.61951 1022 ft 141 kts 226°
2026-05-04 22:00 43.65645 -79.63001 1297 ft 163 kts 224°
2026-05-04 22:00 43.64836 -79.64102 1882 ft 164 kts 224°
2026-05-04 22:00 43.63990 -79.65271 2147 ft 183 kts 225°
2026-05-04 22:00 43.63031 -79.66598 2355 ft 208 kts 226°
2026-05-04 22:01 43.61953 -79.68092 2877 ft 228 kts 226°
2026-05-04 22:01 43.60820 -79.69661 3770 ft 232 kts 226°
2026-05-04 22:01 43.59674 -79.71244 4605 ft 234 kts 226°
2026-05-04 22:01 43.58518 -79.72836 5359 ft 237 kts 226°
2026-05-04 22:02 43.57128 -79.74112 6232 ft 250 kts 204°
2026-05-04 22:02 43.55356 -79.74327 7102 ft 268 kts 175°
2026-05-04 22:02 43.53631 -79.73171 7990 ft 291 kts 143°
2026-05-04 22:02 43.52483 -79.70791 8854 ft 308 kts 117°
2026-05-04 22:03 43.51775 -79.67974 9754 ft 315 kts 109°
2026-05-04 22:03 43.51217 -79.65012 10415 ft 329 kts 107°
2026-05-04 22:03 43.50727 -79.61812 10727 ft 354 kts 99°
2026-05-04 22:03 43.50676 -79.58315 11139 ft 374 kts 86°
2026-05-04 22:04 43.51092 -79.54739 11831 ft 383 kts 76°
2026-05-04 22:04 43.51779 -79.51169 12574 ft 388 kts 76°
2026-05-04 22:04 43.52461 -79.47542 13333 ft 393 kts 76°
2026-05-04 22:04 43.53133 -79.43916 14016 ft 398 kts 76°
2026-05-04 22:05 43.53846 -79.40213 14744 ft 401 kts 74°
2026-05-04 22:05 43.54645 -79.36460 15448 ft 405 kts 73°
2026-05-04 22:05 43.55476 -79.32787 16122 ft 408 kts 72°
2026-05-04 22:05 43.56347 -79.29037 16788 ft 412 kts 71°
2026-05-04 22:06 43.57227 -79.25252 17449 ft 416 kts 71°
2026-05-04 22:06 43.58104 -79.21433 18086 ft 420 kts 71°
2026-05-04 22:06 43.58979 -79.17569 18648 ft 424 kts 71°
2026-05-04 22:06 43.59851 -79.13667 19188 ft 427 kts 71°
2026-05-04 22:07 43.60721 -79.09735 19746 ft 431 kts 71°
2026-05-04 22:07 43.61593 -79.05764 20301 ft 434 kts 71°
2026-05-04 22:07 43.62472 -79.01761 20846 ft 437 kts 71°
2026-05-04 22:07 43.63360 -78.97730 21408 ft 440 kts 70°
2026-05-04 22:08 43.64254 -78.93671 21948 ft 444 kts 70°
2026-05-04 22:08 43.65154 -78.89577 22476 ft 447 kts 70°
2026-05-04 22:08 43.66061 -78.85453 22990 ft 451 kts 70°
2026-05-04 22:08 43.66974 -78.81290 23459 ft 454 kts 70°
2026-05-04 22:09 43.67889 -78.77103 23904 ft 457 kts 70°
2026-05-04 22:09 43.68814 -78.72886 24335 ft 459 kts 69°
2026-05-04 22:09 43.69968 -78.68780 24761 ft 459 kts 63°
2026-05-04 22:09 43.71222 -78.64708 25212 ft 461 kts 63°
2026-05-04 22:10 43.72486 -78.60622 25655 ft 463 kts 63°
2026-05-04 22:10 43.73755 -78.56510 26088 ft 466 kts 63°
2026-05-04 22:10 43.75029 -78.52374 26515 ft 468 kts 63°
2026-05-04 22:10 43.76305 -78.48219 26940 ft 470 kts 63°
2026-05-04 22:11 43.77585 -78.44035 27353 ft 473 kts 63°
2026-05-04 22:11 43.78865 -78.39829 27759 ft 476 kts 63°
2026-05-04 22:11 43.80135 -78.35657 28158 ft 478 kts 63°
2026-05-04 22:11 43.81428 -78.31408 28561 ft 480 kts 63°
2026-05-04 22:12 43.82726 -78.27140 28930 ft 483 kts 63°
2026-05-04 22:12 43.84033 -78.22841 29281 ft 486 kts 63°
2026-05-04 22:12 43.85344 -78.18525 29633 ft 488 kts 63°
2026-05-04 22:12 43.86662 -78.14165 29954 ft 491 kts 63°
2026-05-04 22:13 43.87979 -78.09790 30280 ft 493 kts 63°
2026-05-04 22:13 43.89299 -78.05404 30630 ft 494 kts 63°
2026-05-04 22:13 43.90619 -78.01012 31096 ft 493 kts 63°
2026-05-04 22:13 43.91933 -77.96631 31560 ft 491 kts 63°
2026-05-04 22:14 43.93246 -77.92262 32063 ft 490 kts 62°
2026-05-04 22:14 43.94553 -77.87903 32550 ft 488 kts 62°
2026-05-04 22:14 43.95849 -77.83564 33038 ft 487 kts 62°
2026-05-04 22:14 43.97145 -77.79226 33491 ft 486 kts 62°
2026-05-04 22:15 43.98436 -77.74892 33888 ft 486 kts 62°
2026-05-04 22:15 43.99728 -77.70556 34263 ft 485 kts 62°
2026-05-04 22:15 44.01014 -77.66227 34632 ft 485 kts 63°
2026-05-04 22:15 44.02294 -77.61905 34996 ft 484 kts 63°
2026-05-04 22:16 44.03575 -77.57584 35368 ft 483 kts 63°
2026-05-04 22:16 44.04850 -77.53273 35757 ft 482 kts 63°
2026-05-04 22:16 44.06119 -77.48961 36129 ft 481 kts 63°
2026-05-04 22:16 44.07404 -77.44677 36472 ft 479 kts 60°
2026-05-04 22:17 44.08990 -77.40628 36664 ft 473 kts 52°
2026-05-04 22:17 44.12557 -77.32975 36688 ft 470 kts 52°
2026-05-04 22:18 44.16113 -77.25349 36700 ft 469 kts 52°
2026-05-04 22:18 44.19647 -77.17709 36713 ft 469 kts 52°
2026-05-04 22:19 44.23150 -77.10109 36704 ft 469 kts 52°
2026-05-04 22:19 44.26672 -77.02458 36727 ft 469 kts 52°
2026-05-04 22:20 44.30198 -76.94808 36720 ft 469 kts 52°
2026-05-04 22:20 44.33712 -76.87140 36718 ft 469 kts 52°
2026-05-04 22:21 44.37221 -76.79459 36720 ft 469 kts 52°
2026-05-04 22:21 44.40722 -76.71781 36723 ft 468 kts 52°
2026-05-04 22:22 44.44208 -76.64101 36736 ft 468 kts 52°
2026-05-04 22:22 44.47688 -76.56411 36722 ft 467 kts 52°
2026-05-04 22:23 44.51165 -76.48713 36709 ft 467 kts 52°
2026-05-04 22:23 44.54645 -76.41018 36707 ft 467 kts 52°
2026-05-04 22:24 44.58114 -76.33312 36713 ft 468 kts 52°
2026-05-04 22:24 44.61546 -76.25635 36722 ft 467 kts 52°
2026-05-04 22:25 44.64994 -76.17911 36702 ft 467 kts 52°
2026-05-04 22:25 44.68471 -76.10191 36697 ft 467 kts 52°
2026-05-04 22:26 44.71953 -76.02473 36713 ft 468 kts 52°
2026-05-04 22:26 44.75412 -75.94698 36697 ft 471 kts 57°
2026-05-04 22:27 44.78296 -75.86377 36704 ft 474 kts 58°
2026-05-04 22:27 44.81173 -75.78021 36710 ft 474 kts 60°
2026-05-04 22:27 44.82177 -75.73598 36703 ft 478 kts 76°
2026-05-04 22:28 44.82473 -75.68910 36744 ft 481 kts 83°
2026-05-04 22:28 44.82807 -75.64219 36771 ft 480 kts 71°
2026-05-04 22:28 44.83942 -75.59874 36051 ft 469 kts 56°
2026-05-04 22:28 44.85542 -75.55839 34449 ft 477 kts 53°
2026-05-04 22:29 44.87229 -75.51764 32878 ft 484 kts 53°
2026-05-04 22:29 44.88934 -75.47641 31423 ft 487 kts 53°
2026-05-04 22:29 44.90528 -75.43515 30833 ft 475 kts 61°
2026-05-04 22:29 44.91529 -75.39088 30038 ft 473 kts 71°
2026-05-04 22:30 44.92274 -75.34598 29057 ft 467 kts 72°
2026-05-04 22:30 44.92983 -75.30159 28089 ft 460 kts 73°
2026-05-04 22:30 44.93668 -75.25783 27141 ft 454 kts 73°
2026-05-04 22:30 44.94341 -75.21467 26211 ft 447 kts 73°
2026-05-04 22:31 44.95010 -75.17204 25307 ft 442 kts 73°
2026-05-04 22:31 44.95664 -75.13053 24438 ft 436 kts 74°
2026-05-04 22:31 44.96320 -75.08892 23578 ft 431 kts 74°
2026-05-04 22:31 44.96968 -75.04787 22634 ft 426 kts 74°
2026-05-04 22:32 44.97607 -75.00727 21688 ft 421 kts 75°
2026-05-04 22:32 44.98307 -74.96755 20801 ft 413 kts 69°
2026-05-04 22:32 44.99367 -74.93027 19928 ft 405 kts 60°
2026-05-04 22:32 45.00715 -74.89591 19099 ft 397 kts 57°
2026-05-04 22:33 45.02071 -74.86215 18297 ft 393 kts 57°
2026-05-04 22:33 45.03408 -74.82869 17424 ft 389 kts 57°
2026-05-04 22:33 45.04723 -74.79557 16566 ft 384 kts 57°
2026-05-04 22:33 45.06022 -74.76274 16127 ft 382 kts 57°
2026-05-04 22:34 45.07325 -74.72989 15958 ft 382 kts 57°
2026-05-04 22:34 45.08625 -74.69710 15983 ft 383 kts 57°
2026-05-04 22:34 45.09927 -74.66418 15986 ft 383 kts 57°
2026-05-04 22:34 45.11230 -74.63127 15990 ft 385 kts 57°
2026-05-04 22:35 45.12551 -74.59837 16000 ft 383 kts 56°
2026-05-04 22:35 45.13922 -74.56614 15987 ft 382 kts 54°
2026-05-04 22:35 45.15334 -74.53422 15986 ft 382 kts 54°
2026-05-04 22:35 45.16759 -74.50247 15986 ft 382 kts 54°
2026-05-04 22:36 45.18183 -74.47065 15985 ft 382 kts 54°
2026-05-04 22:36 45.19597 -74.43872 15986 ft 382 kts 54°
2026-05-04 22:36 45.21001 -74.40672 15979 ft 383 kts 54°
2026-05-04 22:36 45.22405 -74.37449 15349 ft 385 kts 55°
2026-05-04 22:37 45.23325 -74.35320 14868 ft 379 kts 55°
2026-05-04 22:37 45.24697 -74.32134 14366 ft 378 kts 55°
2026-05-04 22:37 45.26512 -74.27915 13661 ft 378 kts 55°
2026-05-04 22:37 45.27883 -74.24727 13098 ft 378 kts 56°
2026-05-04 22:38 45.29246 -74.21552 12551 ft 376 kts 56°
2026-05-04 22:38 45.30604 -74.18389 12023 ft 374 kts 56°
2026-05-04 22:38 45.31954 -74.15238 11504 ft 372 kts 56°
2026-05-04 22:38 45.32863 -74.13116 11148 ft 371 kts 56°
2026-05-04 22:39 45.34185 -74.10025 10627 ft 370 kts 56°
2026-05-04 22:39 45.35550 -74.06888 10248 ft 363 kts 52°
2026-05-04 22:39 45.37121 -74.04264 10131 ft 345 kts 39°
2026-05-04 22:39 45.38866 -74.02007 10010 ft 335 kts 37°
2026-05-04 22:40 45.40579 -73.99781 9899 ft 331 kts 38°
2026-05-04 22:40 45.42266 -73.97586 9770 ft 327 kts 38°
2026-05-04 22:40 45.43915 -73.95437 9654 ft 312 kts 38°
2026-05-04 22:40 45.45452 -73.93421 9518 ft 289 kts 37°
2026-05-04 22:41 45.46901 -73.91523 9147 ft 277 kts 37°
2026-05-04 22:41 45.48301 -73.89697 8544 ft 271 kts 37°
2026-05-04 22:41 45.49674 -73.87910 8052 ft 262 kts 37°
2026-05-04 22:41 45.51011 -73.86171 7493 ft 259 kts 37°
2026-05-04 22:42 45.52335 -73.84448 6915 ft 257 kts 37°
2026-05-04 22:42 45.53652 -73.82730 6347 ft 256 kts 37°
2026-05-04 22:42 45.54958 -73.81019 5764 ft 255 kts 38°
2026-05-04 22:42 45.56258 -73.79316 5335 ft 253 kts 38°
2026-05-04 22:43 45.57553 -73.77620 4946 ft 252 kts 39°
2026-05-04 22:43 45.58845 -73.75929 4573 ft 252 kts 38°
2026-05-04 22:43 45.60133 -73.74240 4346 ft 251 kts 39°
2026-05-04 22:43 45.61423 -73.72550 4287 ft 252 kts 39°
2026-05-04 22:44 45.62708 -73.70863 4189 ft 251 kts 39°
2026-05-04 22:44 45.63988 -73.69181 4082 ft 249 kts 39°
2026-05-04 22:44 45.65265 -73.67501 3980 ft 249 kts 40°
2026-05-04 22:44 45.66539 -73.65827 3919 ft 248 kts 39°
2026-05-04 22:45 45.67808 -73.64159 3862 ft 248 kts 40°
2026-05-04 22:45 45.70143 -73.60578 3754 ft 240 kts 63°
2026-05-04 22:45 45.70534 -73.58345 3702 ft 228 kts 90°
2026-05-04 22:46 45.70266 -73.56171 3623 ft 219 kts 117°
2026-05-04 22:46 45.69453 -73.54409 3574 ft 209 kts 142°
2026-05-04 22:46 45.68288 -73.53272 3533 ft 199 kts 163°
2026-05-04 22:46 45.66980 -73.52828 3486 ft 189 kts 183°
2026-05-04 22:47 45.65671 -73.52733 3476 ft 188 kts 184°
2026-05-04 22:47 45.64357 -73.52638 3426 ft 189 kts 184°
2026-05-04 22:47 45.63067 -73.52812 3387 ft 184 kts 197°
2026-05-04 22:47 45.61873 -73.53405 3343 ft 180 kts 210°
2026-05-04 22:48 45.60850 -73.54412 3301 ft 178 kts 221°
2026-05-04 22:48 45.59924 -73.55547 3257 ft 178 kts 224°
2026-05-04 22:48 45.59028 -73.56701 3104 ft 161 kts 224°
2026-05-04 22:48 45.58258 -73.57708 2919 ft 143 kts 224°
2026-05-04 22:49 45.57543 -73.58650 2738 ft 137 kts 224°
2026-05-04 22:49 45.56853 -73.59558 2562 ft 133 kts 224°
2026-05-04 22:49 45.56176 -73.60451 2387 ft 133 kts 223°
2026-05-04 22:49 45.55499 -73.61342 2212 ft 133 kts 224°
2026-05-04 22:50 45.54824 -73.62232 2038 ft 131 kts 224°
2026-05-04 22:50 45.54151 -73.63118 1855 ft 132 kts 223°
2026-05-04 22:50 45.53477 -73.64005 1685 ft 132 kts 223°
2026-05-04 22:50 45.52808 -73.64886 1506 ft 131 kts 223°
2026-05-04 22:51 45.52141 -73.65764 1322 ft 130 kts 222°
2026-05-04 22:51 45.51472 -73.66632 1102 ft 130 kts 222°
2026-05-04 22:51 45.50801 -73.67503 880 ft 130 kts 224°
2026-05-04 22:51 45.50133 -73.68375 709 ft 131 kts 223°
2026-05-04 22:52 45.49469 -73.69281 528 ft 130 kts 221°
2026-05-04 22:52 45.48805 -73.70150 422 ft 130 kts 224°
2026-05-04 22:52 45.48132 -73.71017 325 ft 130 kts 223°
2026-05-04 22:52 45.47476 -73.71884 139 ft 124 kts 225°
2026-05-04 22:53 45.46926 -73.72623 114 ft 86 kts 222°
2026-05-04 22:53 45.46612 -73.73033 113 ft 47 kts 223°
2026-05-04 22:53 45.46384 -73.73326 111 ft 40 kts 222°
2026-05-04 22:53 45.46227 -73.73537 111 ft 26 kts 223°
2026-05-04 22:54 45.46157 -73.73708 109 ft 18 kts 262°
2026-05-04 22:54 45.46148 -73.73891 106 ft 20 kts 266°
2026-05-04 22:54 45.46143 -73.74022 105 ft 4 kts 267°
2026-05-04 22:54 45.46141 -73.74067 105 ft 5 kts 266°
2026-05-04 22:55 45.46137 -73.74157 104 ft 15 kts 265°
2026-05-04 22:55 45.46083 -73.74271 103 ft 15 kts 226°
2026-05-04 22:55 45.46037 -73.74346 103 ft 9 kts 230°
2026-05-04 22:55 45.45999 -73.74417 104 ft 9 kts 238°
2026-05-04 22:56 45.45961 -73.74444 105 ft 9 kts 179°
2026-05-04 22:56 45.45922 -73.74441 105 ft 2 kts 177°
2026-05-04 22:56 45.45911 -73.74441 105 ft 1 kts 177°
2026-05-04 22:56 45.45901 -73.74440 105 ft 1 kts 177°
2026-05-04 22:57 45.45892 -73.74440 105 ft 1 kts 177°
2026-05-04 22:57 45.45891 -73.74440 105 ft 0 kts 177°